ATLAS 5 CENTAUR DEB, 44666

Orbit data source: Space-Track

ATLAS 5 CENTAUR DEB, 44666 is space debris in HEO originally from a launch on Wed, 17 Oct 2018 UTC launched from the Air Force Eastern Test Range (AFETR). Debris objects in space refer to the collection of defunct objects orbiting the Earth. Examples of debris include non-operational satellites, rocket bodies, and fragments generated from explosions, collisions, or faulty payload assembly.

Loading next visibility...
Identifier
44666, 2018-079AC
Orbit
HEO
Country
Flag of USUS
Related business
Flag of USUnited Launch Alliance/Lockheed Martin (US)
Manufacturer
ULA Decatur
Mission
Spacecraft
Bus & Motor
Unknown
Mass
Unknown
Launch date (UTC)
2018-10-17 (8 years ago)
Launch vehicle
Unknown
Launch site
Air Force Eastern Test Range (AFETR)
Object type
Payload
Rocket body
Debris
Shape & HBR
Unknown shape, 1.1 m
Radar Cross Section
Medium (>0.1 m² and <1 m²)

Expand to show TLE details & history
Last TLE update: 2 days ago

TLE from 2 days ago
0 ATLAS 5 CENTAUR DEB
1 44666U 18079AC  26198.17517535 -.00000128  00000-0  00000+0 0  9992
2 44666  13.1039  27.4535 4460596 340.8679   6.5664  1.90664200 49594
Epoch: 2026-07-17T04:12Z
TLE epoch observation values (Epoch: 2026-07-17T04:12:15.150Z)
Latitude
0.00006°
Longitude
29.40663°
Altitude
9,129.818 km
Speed
6.074 km/s
True Right ascension
01h 49m 54s
True Declination
0° 00' 00"
Sunlit
Object was in daylight at epoch
Visualization orbit readout
Latitude
Unknown
Longitude
Unknown
Altitude
Unknown
Speed
Unknown
Apparent Right ascension
Unknown
Apparent Declination
Unknown
Sunlit
N/A
Visualization observer readout
Local Sidereal Time
19:16:26
Azimuth
Unknown
Elevation
Unknown
Doppler factor
Unknown
Orbital elements
Apogee altitude
33,350.911 km
Perigee altitude
8,840.824 km
Semi-major axis
27,474.004 km
Eccentricity
0.44606
Inclination
13.1039°
RAAN
27.4535°
Arg. of periapsis
340.8679°
True anomaly
18.93771°
Mean anomaly
6.5664°
Eccentric anomaly
11.78717°
Mean motion
0.47661 °/min
Orbital period
755.34 mins
BSTAR
0
Loading maneuver chart data...
Computing Atmospheric mass density...

Documentation

Showing up to 5 results
|